Satellite-Ground Cal/Val Site Overpasses Predictions

Prediction of Satellite NPP Overpassing Cal/Val Site: Antarctic Dome C

Ground Cal/Val Site Location: Latitude: -75.10, Longitude: 123.35; Satellite-Ground Site NADIR distance within 100 km.

Table of predicted overpasses for the next 14.0 days since TLE Epoch: 2/8/2019
Interval Starting Time Ending Time Minimum Distance Time Minimum Distance (km)
1 02/09/2019 15:01:21 02/09/2019 15:01:45 02/09/2019 15:01:33 59.55
2 02/10/2019 14:42:31 02/10/2019 14:42:56 02/10/2019 14:42:44 49.77
3 02/11/2019 07:44:12 02/11/2019 07:44:32 02/11/2019 07:44:22 72.95
4 02/12/2019 07:25:18 02/12/2019 07:25:46 02/12/2019 07:25:32 34.89
5 02/14/2019 15:07:45 02/14/2019 15:07:51 02/14/2019 15:07:48 97.16
6 02/15/2019 14:48:43 02/15/2019 14:49:12 02/15/2019 14:48:58 14.16
7 02/17/2019 07:31:32 02/17/2019 07:32:01 02/17/2019 07:31:47 3.20
8 02/20/2019 14:54:57 02/20/2019 14:55:26 02/20/2019 14:55:11 22.19
9 02/21/2019 14:36:15 02/21/2019 14:36:30 02/21/2019 14:36:22 84.99


NCC Satellite Cal/Val Overpasses Prediction Service
